Flag for Switzerland Weather past 2 weeks in Davos, Graubünden, Switzerland

Now
79 °F

Passing clouds.


Feels Like: 80 °F
Forecast: 51 / 80 °F
Wind: 7 mph from Northeast

Location: Chur-Ems

Current Time: Aug 28, 2015 at 9:32:30 PM

Latest Report: Aug 28, 2015 at 8:00 PM


Visibility: 14 mi

Pressure: 30.02 "Hg (25.18 "Hg at 1540m altitude)

Humidity: 46%

Dew point: 56 °F

Location of DavosLocation

Historic Weather in Davos — Graph

°F

Davos temperature yesterday

Maximum temperature yesterday: 88 °F (at 4:00 PM)
Minimum temperature yesterday: 60 °F (at 6:00 AM)
Average temperature yesterday: 74 °F

Past Weeks' High & Low Weather Summary

 TemperatureHumidityPressure
High89 °F (Aug 13, 7:00 PM)95% (Aug 15, 2:00 AM)30.30 "Hg (Aug 15, 2:00 AM)
Low53 °F (Aug 21, 7:00 AM)24% (Aug 27, 2:00 PM)29.65 "Hg (Aug 24, 12:40 PM)
Average65 °F68%29.97 "Hg
* Reported Aug 13 7:00 PM — Aug 28 7:00 PM, Davos, Weather by CustomWeather, © 2015

Note: Actual official high and low records may vary slightly from our data, if they occured in-between our weather recording intervals... More about our weather records

Advertising

Davos weather history for previous 24 hours

 ConditionsComfort  
Time TempWeatherWind HumidityBarometerVisibility
7:00 PM
Fri, Aug 28
82 °FWarm.8 mph40%30.00 "HgN/A
6:00 PM85 °FPleasantly warm.9 mph37%29.97 "HgN/A
5:00 PM86 °FPassing clouds.15 mph36%29.96 "Hg16 mi
4:00 PM87 °FPleasantly warm.12 mph35%29.96 "HgN/A
2:00 PM86 °FOvercast.6 mph33%29.98 "Hg16 mi
1:00 PM84 °FPleasantly warm.2 mph32%30.00 "HgN/A
12:00 PM81 °FPleasantly warm.3 mph37%30.02 "HgN/A
11:00 AM77 °FPartly sunny.7 mph42%30.04 "Hg12 mi
10:00 AM73 °FMild.6 mph47%30.06 "HgN/A
9:00 AM69 °FMild.7 mph54%30.08 "HgN/A
8:00 AM66 °FPartly sunny.5 mph55%30.08 "Hg10 mi
7:00 AM63 °FMild.6 mph63%30.08 "HgN/A
4:00 AM66 °FMild.6 mph57%30.05 "HgN/A
3:00 AM68 °FMild.10 mph52%30.03 "HgN/A
2:00 AM69 °FPassing clouds.8 mph45%30.01 "Hg10 mi
1:00 AM70 °FMild.10 mph44%30.00 "HgN/A
10:00 PM
Thu, Aug 27
74 °FMild.10 mph42%29.94 "HgN/A
9:00 PM78 °FPleasantly warm.10 mph38%29.90 "HgN/A
Weather by CustomWeather, © 2015

See weather overviewHow to use our weather pages